Regional Weather Roundup
Issued by NWS

Home | Current Version | Previous Version | Graphics & Text | Print | Product List | Glossary On
Versions: 1 2 3 4 5 6 7 8 9 10 11 12 13 14 15 16 17 18 19 20 21 22 23 24 25 26 27 28 29 30 31 32 33 34 35 36 37 38 39 40 41 42 43 44 45 46 47 48 49 50
000
ASUS43 KIND 250509
RWRIN

WEATHER ROUNDUP FOR INDIANA
NATIONAL WEATHER SERVICE INDIANAPOLIS IN
100 AM EDT MON JUL 25 2016

NOTE: "FAIR" INDICATES FEW OR NO CLOUDS BELOW 12,000 FEET WITH NO
SIGNIFICANT WEATHER AND/OR OBSTRUCTIONS TO VISIBILITY.

* - STATION DOES NOT REPORT WEATHER SUCH AS PRECIPITATION OR FOG.

+ - STATION NOT QUALITY CONTROLLED BY THE NATIONAL WEATHER SERVICE.
    USE DATA WITH CAUTION...ESPECIALLY DEWPOINT AND RELATIVE
    HUMIDITY OBSERVATIONS.

INZ001>003-010>013-019-020-250600-
NORTHWEST INDIANA

CITY           SKY/WX    TMP DP  RH WIND       PRES   REMARKS
GARY /AIRPORT/ CLOUDY    75  74  98 S9        29.95R
KNOX *+        CLOUDY    70  63  78 SW8       29.97R
LA PORTE +     TSTM      73  73 100 SW14      29.99R
MICHIGAN CITY+ LGT RAIN  72  70  94 S6        29.96R
MONTICELLO +   LGT RAIN  70  65  84 CALM      30.00R
RENSSELAER +   RAIN      70  68  94 SE6       30.00R
VALPARAISO     LGT RAIN  72  69  90 S13       29.97R

$$

LMZ046-743>745-250600-
SOUTHERN LAKE MICHIGAN

STATION/POSITION TIME  TEMP    WIND        PRES    WAVE
                       AIR SEA DIR/SP/G            HT
                 (UTC) (F)     (DEG/KT/KT) (MB)    (FT)
BURNS HARBOR     0500   74     190/ 18/ 22 1014.2R
MICHIGAN CITY    0400   77     160/  9/ 13   N/A
5NW MICH CITY    0500   75 74  220/ 14/ 17   N/A     2

$$

INZ004-005-014>016-021>024-250600-
NORTH CENTRAL INDIANA

CITY           SKY/WX    TMP DP  RH WIND       PRES   REMARKS
GOSHEN         LGT RAIN  75  65  70 SW14      29.95R
LOGANSPORT +   LGT RAIN  70  66  88 NW3       30.00F
PERU/GRISSOM   CLOUDY    70  68  94 W9        29.99S
ROCHESTER +    MOCLDY    70  70 100 SW13G21   29.99R
SOUTH BEND     TSTM      70  67  90 SW16      29.96R
WARSAW +       RAIN      70  68  94 SW3       29.96S

$$

INZ006>009-017-018-025>027-250600-
NORTHEAST INDIANA

CITY           SKY/WX    TMP DP  RH WIND       PRES   REMARKS
ANGOLA *+      PTCLDY    82  75  78 SW12      29.93R
AUBURN +       CLOUDY    82  73  74 SW8       29.94R
FORT WAYNE     CLOUDY    81  74  79 SW12      29.96R
HUNTINGTON +   CLOUDY    77  66  67 W12G25    29.97R

$$

INZ028-029-035-036-043>045-051>053-250600-
WEST CENTRAL INDIANA

CITY           SKY/WX    TMP DP  RH WIND       PRES   REMARKS
CRAWFORDSVL +  CLOUDY    73  70  91 N6        30.04R
GREENCASTLE +  PTCLDY    79  79 100 NW12G18   30.03R
LAFAYETTE      CLOUDY    71  69  93 W3        30.01R
TERRE HAUTE    CLOUDY    80  71  74 NW15G23   30.02R

$$

INZ030>032-037>040-046>048-054>057-064-065-250600-
CENTRAL INDIANA

CITY           SKY/WX    TMP DP  RH WIND       PRES   REMARKS
FRANKFORT +    CLOUDY    76  69  78 N8        30.05R
INDIANAPOLIS   MOCLDY    80  76  87 W7        30.01R
-EAGLE CREEK   PTCLDY    82  76  81 W6        30.00R
KOKOMO *+      CLOUDY    73  63  68 NW9       30.00S
MARION +       CLOUDY    78  69  76 W9        30.00R HAZE
MT COMFORT *+  CLEAR     77  75  94 W5        30.02R
SHELBYVILLE    CLEAR     79  75  87 SW3       29.99R
ZIONSVILLE +   MOCLDY    76  69  78 N13G28    30.04R

$$

INZ033-034-041-042-049-050-058-059-250600-
EAST CENTRAL INDIANA

CITY           SKY/WX    TMP DP  RH WIND       PRES   REMARKS
MUNCIE         CLEAR     82  75  79 SW7       29.99R

$$

INZ060-061-067>069-081>083-085>088-250600-
SOUTHWEST INDIANA

CITY           SKY/WX    TMP DP  RH WIND       PRES   REMARKS
EVANSVILLE     CLEAR     82  75  79 W3        29.97R
HUNTINGBURG *+ CLEAR     81  73  78 CALM      29.98R
WASHINGTON +   CLEAR     77  77 100 MISG      29.98R

$$

INZ062-063-066-070>080-084-089>092-250600-
SOUTH CENTRAL AND SOUTHEAST INDIANA

CITY           SKY/WX    TMP DP  RH WIND       PRES   REMARKS
BLOOMINGTON    CLEAR     79  74  84 W3        30.01R
MADISON *+     CLEAR     77  73  88 CALM      30.01R

$$





USA.gov is the U.S. government's official web portal to all federal, state and local government web resources and services.